Location: Im Fang
(46.6019°N, 7.2397°E)
Time: 09:21:11
(UTC+00:00)

ATLAS 5 CENTAUR R/B - Pass Details

Date: 08 December 2019
Orbit: 550 x 1109 km, 63.4° (Epoch: 20 January)

Event Time Altitude Azimuth Distance (km) Brightness Sun altitude
Exits shadow 03:20:08 13° 46° (NE) 1,875 4.5 -37.1°
Drops below altitude 10° 03:20:42 10° 45° (NE) 2,099 4.7 -37.0°
Sets 03:23:13 0° 42° (NE) 3,104 5.7 -36.6°
